Regional Weather Roundup
Issued by NWS

Home | Current Version | Previous Version | Graphics & Text | Print | Product List | Glossary On
Versions: 1 2 3 4 5 6 7 8 9 10 11 12 13 14 15 16 17 18 19 20 21 22 23 24 25 26 27 28 29 30 31 32 33 34 35 36 37 38 39 40 41 42 43 44 45 46 47 48 49 50
000
ASUS43 KBIS 191610
RWRND

NORTH DAKOTA REGIONAL WEATHER ROUNDUP
NATIONAL WEATHER SERVICE BISMARCK ND
1000 AM CST SUN NOV 19 2017

NOTE: "FAIR" INDICATES FEW OR NO CLOUDS BELOW 12,000 FEET WITH NO
SIGNIFICANT WEATHER AND/OR OBSTRUCTIONS TO VISIBILITY.


NDZ001>003-009>011-017-191700-
NORTHWEST NORTH DAKOTA

CITY           SKY/WX    TMP DP  RH WIND       PRES   REMARKS
WILLISTON      CLOUDY    26  22  84 S5        29.85F
MINOT          SUNNY     35  22  58 SW8G18    29.81S
MINOT AFB      SUNNY     32  23  69 W13       29.80S
$$

NDZ018>021-031>035-040>046-191700-
SOUTHWEST NORTH DAKOTA

CITY           SKY/WX    TMP DP  RH WIND       PRES   REMARKS
BISMARCK       CLOUDY    36  26  67 W3        29.90F
DICKINSON      CLOUDY    35  21  56 W12       29.86F
GARRISON         N/A     31  24  75 W7        29.84F
HETTINGER ARPT CLOUDY    35  22  58 W13       29.93S
$$

NDZ004>008-012>016-024-026-027-054-191700-
NORTHEAST NORTH DAKOTA

CITY           SKY/WX    TMP DP  RH WIND       PRES   REMARKS
GRAND FORKS    CLOUDY    20  16  84 S7        29.88F WCI  11
GRND FRKS AFB  SUNNY     21  14  73 S6        29.87F WCI  14
DEVILS LAKE    SUNNY     27  22  81 SW10      29.82F WCI  17
$$

NDZ022-023-025-028>030-036>039-047>053-191700-
SOUTHEAST NORTH DAKOTA

CITY           SKY/WX    TMP DP  RH WIND       PRES   REMARKS
FARGO          SUNNY     25  18  74 S12       29.92F WCI  14
JAMESTOWN      SUNNY     32  24  72 SW13      29.86F
$$





USA.gov is the U.S. government's official web portal to all federal, state and local government web resources and services.